Location: Newark
(43.4000°N, 45.7167°E)
Time: 07:57:05
(UTC+00:00)

Envisat - Visible Passes

Search period start: 22 March 2019 00:00
Search period end: 01 April 2019 00:00
Orbit: 764 x 766 km, 98.2° (Epoch: 22 March)

Date Brightness Start Highest point End Pass type
(mag) Time Alt. Az. Time Alt. Az. Time Alt. Az.
22 Mar 6.0 17:00:53 10° WSW 17:03:31 14° W 17:06:10 10° WNW visible
23 Mar 5.0 16:21:57 10° SSW 16:26:24 30° W 16:30:53 10° NNW visible
24 Mar 3.5 15:44:27 10° S 15:49:29 67° WSW 15:54:34 10° NNW visible
25 Mar 5.8 16:48:46 10° SW 16:52:10 18° W 16:55:35 10° NW visible
26 Mar 4.6 16:10:25 10° SSW 16:15:07 38° W 16:19:52 10° NNW visible
28 Mar 5.5 16:36:55 10° SW 16:40:50 22° W 16:44:48 10° NW visible
29 Mar 4.1 15:58:57 10° S 16:03:51 48° W 16:08:47 10° NNW visible
30 Mar 6.0 17:04:27 10° WSW 17:06:40 13° W 17:08:54 10° WNW visible
31 Mar 5.2 16:25:13 10° SSW 16:29:32 28° W 16:33:53 10° NW visible
